User: anonymous   Login
Location: Fishcreek Rd Observing Site
(41.1865°N, 81.4271°W)
Time: 23:26:54
(UTC-04:00)
Language:

Iridium 45 - Orbit

View from above orbital plane
View from above orbital plane
View from above satellite
View from above satellite

Ground track
Ground track

The orbit data is extracted from the following two-line orbital elements,

1 25104U 97082A   16270.47662074  .00000169  00000-0  53225-4 0  9997
2 25104  86.3978  37.4753 0003306  91.3886 268.7689 14.34214651982579
Epoch (UTC): 26 September 2016 11:26:20
Eccentricity: 0.0003306
inclination: 86.3978°
perigee height: 775 km
apogee height: 780 km
right ascension of ascending node: 37.4753°
argument of perigee: 91.3886°
revolutions per day: 14.34214651
mean anomaly at epoch: 268.7689°
orbit number at epoch: 98257

The dashed part of the orbit path shows where the satellite is in the earth's shadow,  

DLR